DW8636 Weather Reports


time (UTC)temp
C
wind
direction
speed
KPH
gust
KPH
rain 1hr
cm
rain 24hr
cm
rain mn
cm
humidity
%
barometer
mb
20220812002102 26 257 0.0 0.0 0.00 0.00 0.00 59 1009.0
20220812001600 26 257 0.0 0.0 0.00 0.00 0.00 60 1009.1
20220812001103 26 257 0.0 0.0 0.00 0.00 0.00 60 1009.1
20220812000559 26 257 0.0 0.0 0.00 0.00 0.00 60 1009.1
20220812000104 26 257 0.0 0.0 0.00 0.00 0.00 60 1009.1
20220811235559 26 257 0.0 0.0 0.00 0.00 0.00 60 1009.1
20220811235059 26 257 0.0 0.0 0.00 0.00 0.00 60 1009.1
20220811234559 26 257 0.0 0.0 0.00 0.00 0.00 60 1009.1
20220811234103 26 257 0.0 0.0 0.00 0.00 0.00 59 1009.0
20220811233100 26 257 0.0 0.0 0.00 0.00 0.00 58 1009.0
20220811232602 26 257 0.0 0.0 0.00 0.00 0.00 58 1009.0
20220811232105 26 257 0.0 0.0 0.00 0.00 0.00 58 1009.1
20220811231653 26 257 0.0 0.0 0.00 0.00 0.00 58 1009.2
20220811231103 26 257 0.0 0.0 0.00 0.00 0.00 58 1009.3
20220811230557 26 257 0.0 0.0 0.00 0.00 0.00 58 1009.3
20220811230111 26 257 0.0 0.0 0.00 0.00 0.00 58 1009.3
20220811225556 26 257 0.0 0.0 0.00 0.00 0.00 58 1009.3
20220811225103 26 257 0.0 0.0 0.00 0.00 0.00 58 1009.3
20220811224555 26 257 0.0 0.0 0.00 0.00 0.00 57 1009.2
20220811224056 26 257 0.0 0.0 0.00 0.00 0.00 56 1009.4
20220811223106 27 257 0.0 0.0 0.00 0.00 0.00 54 1009.5
20220811222558 27 257 0.0 0.0 0.00 0.00 0.00 54 1009.6
20220811222055 28 257 0.0 0.0 0.00 0.00 0.00 53 1009.4
20220811221556 28 257 0.0 0.0 0.00 0.00 0.00 51 1009.4
20220811221055 29 257 0.0 0.0 0.00 0.00 0.00 50 1009.6
20220811220555 30 257 0.0 0.0 0.00 0.00 0.00 51 1009.5
20220811220057 30 257 0.0 0.0 0.00 0.00 0.00 50 1009.4
20220811215600 30 257 0.0 0.0 0.00 0.00 0.00 50 1009.4
20220811215052 30 257 0.0 0.0 0.00 0.00 0.00 51 1009.3
20220811214553 30 257 0.0 0.0 0.00 0.00 0.00 52 1009.5
20220811214049 29 257 0.0 0.0 0.00 0.00 0.00 52 1009.3
20220811213049 29 257 0.0 0.0 0.00 0.00 0.00 52 1009.4
20220811212547 28 257 0.0 0.0 0.00 0.00 0.00 53 1009.5
20220811212049 28 257 0.0 0.0 0.00 0.00 0.00 53 1009.5
20220811211547 28 257 0.0 0.0 0.00 0.00 0.00 54 1009.3
20220811211050 28 257 0.0 0.0 0.00 0.00 0.00 54 1009.4
20220811210548 28 257 0.0 0.0 0.00 0.00 0.00 54 1009.5
20220811210047 28 257 0.0 0.0 0.00 0.00 0.00 53 1009.6
20220811205544 28 257 0.0 0.0 0.00 0.00 0.00 53 1009.8
20220811205045 28 257 0.0 0.0 0.00 0.00 0.00 53 1009.7
20220811204546 28 257 0.0 0.0 0.00 0.00 0.00 54 1009.7
20220811204049 28 257 0.0 0.0 0.00 0.00 0.00 53 1009.9
20220811203056 28 257 0.0 0.0 0.00 0.00 0.00 54 1010.1
20220811202541 28 257 0.0 0.0 0.00 0.00 0.00 56 1010.2
20220811202046 28 257 0.0 0.0 0.00 0.00 0.00 54 1010.2
20220811201545 28 257 0.0 0.0 0.00 0.00 0.00 54 1010.1
20220811201044 28 257 0.0 0.0 0.00 0.00 0.00 52 1010.2
20220811200540 28 257 0.0 0.0 0.00 0.00 0.00 51 1010.3
20220811200041 29 257 0.0 0.0 0.00 0.00 0.00 52 1010.4
20220811195539 28 257 0.0 0.0 0.00 0.00 0.00 53 1010.4
20220811195038 28 257 0.0 0.0 0.00 0.00 0.00 52 1010.4
20220811194537 28 257 0.0 0.0 0.00 0.00 0.00 52 1010.5
20220811194039 28 257 0.0 0.0 0.00 0.00 0.00 52 1010.6
20220811193045 28 257 0.0 0.0 0.00 0.00 0.00 53 1010.8
20220811192535 28 257 0.0 0.0 0.00 0.00 0.00 54 1010.7
20220811192038 28 257 0.0 0.0 0.00 0.00 0.00 54 1010.8
20220811191535 27 257 0.0 0.0 0.00 0.00 0.00 54 1010.8
20220811191034 27 257 0.0 0.0 0.00 0.00 0.00 55 1010.8
20220811190533 27 257 0.0 0.0 0.00 0.00 0.00 56 1010.9
20220811190053 27 257 0.0 0.0 0.00 0.00 0.00 56 1011.1
20220811185529 27 257 0.0 0.0 0.00 0.00 0.00 57 1011.1
20220811185027 26 257 0.0 0.0 0.00 0.00 0.00 59 1011.2
20220811184559 26 257 0.0 0.0 0.00 0.00 0.00 58 1011.2
20220811184027 26 257 0.0 0.0 0.00 0.00 0.00 59 1011.2
20220811183025 26 257 0.0 0.0 0.00 0.00 0.00 59 1011.2
20220811182529 26 257 0.0 0.0 0.00 0.00 0.00 60 1011.3
20220811182023 25 257 0.0 0.0 0.00 0.00 0.00 62 1011.3
20220811181527 25 257 0.0 0.0 0.00 0.00 0.00 64 1011.4
20220811181022 25 257 0.0 0.0 0.00 0.00 0.00 62 1011.3
20220811180526 25 257 0.0 0.0 0.00 0.00 0.00 62 1011.4
20220811180028 25 257 0.0 0.0 0.00 0.00 0.00 62 1011.5
20220811175528 25 257 0.0 0.0 0.00 0.00 0.00 62 1011.4
20220811175023 25 257 0.0 0.0 0.00 0.00 0.00 62 1011.4
20220811174525 25 257 0.0 0.0 0.00 0.00 0.00 63 1011.5
20220811174019 25 257 0.0 0.0 0.00 0.00 0.00 63 1011.7
20220811173035 24 257 0.0 0.0 0.00 0.00 0.00 66 1011.7
20220811172520 23 257 0.0 0.0 0.00 0.00 0.00 68 1011.8
20220811172017 23 257 0.0 0.0 0.00 0.00 0.00 68 1012.1
20220811171520 23 257 0.0 0.0 0.00 0.00 0.00 68 1012.3
20220811171017 23 257 0.0 0.0 0.00 0.00 0.00 68 1012.0
20220811170516 23 257 0.0 0.0 0.00 0.00 0.00 68 1011.9
20220811170023 23 257 0.0 0.0 0.00 0.00 0.00 69 1012.0
20220811165517 23 257 0.0 0.0 0.00 0.00 0.00 68 1012.0
20220811165016 23 257 0.0 0.0 0.00 0.00 0.00 69 1012.1
20220811164518 23 257 0.0 0.0 0.00 0.00 0.00 68 1012.2
20220811164018 23 257 0.0 0.0 0.00 0.00 0.00 69 1012.2
20220811163015 23 257 0.0 0.0 0.00 0.00 0.00 68 1012.2
20220811162515 23 257 0.0 0.0 0.00 0.00 0.00 68 1012.1
20220811162019 23 257 0.0 0.0 0.00 0.00 0.00 68 1012.3
20220811161524 23 257 0.0 0.0 0.00 0.00 0.00 67 1012.0
20220811161016 23 257 0.0 0.0 0.00 0.00 0.00 67 1012.3
20220811160518 23 257 0.0 0.0 0.00 0.00 0.00 66 1012.4
20220811160014 23 257 0.0 0.0 0.00 0.00 0.00 65 1012.5
20220811155513 23 257 0.0 0.0 0.00 0.00 0.00 66 1012.3
20220811155011 22 257 0.0 0.0 0.00 0.00 0.00 68 1012.3
20220811154520 22 257 0.0 0.0 0.00 0.00 0.00 67 1012.3
20220811154012 22 257 0.0 0.0 0.00 0.00 0.00 66 1012.4
20220811153011 22 257 0.0 0.0 0.00 0.00 0.00 67 1012.3
20220811152508 21 257 0.0 0.0 0.00 0.00 0.00 67 1012.5
20220811152012 21 257 0.0 0.0 0.00 0.00 0.00 68 1012.7
20220811151510 21 257 0.0 0.0 0.00 0.00 0.00 69 1012.9
20220811151006 21 257 0.0 0.0 0.00 0.00 0.00 70 1012.6
20220811150506 20 257 0.0 0.0 0.00 0.00 0.00 70 1012.4
20220811150007 20 257 0.0 0.0 0.00 0.00 0.00 70 1012.4
20220811145505 20 257 0.0 0.0 0.00 0.00 0.00 69 1012.3
20220811145012 20 257 0.0 0.0 0.00 0.00 0.00 70 1012.5
20220811144505 20 257 0.0 0.0 0.00 0.00 0.00 70 1012.6
20220811144005 20 257 0.0 0.0 0.00 0.00 0.00 71 1012.6
20220811143008 20 257 0.0 0.0 0.00 0.00 0.00 72 1012.6
20220811142506 20 257 0.0 0.0 0.00 0.00 0.00 72 1012.7
20220811142005 19 257 0.0 0.0 0.00 0.00 0.00 72 1012.0
20220811141505 19 257 0.0 0.0 0.00 0.00 0.00 72 1011.9
20220811141005 19 257 0.0 0.0 0.00 0.00 0.00 73 1012.0
20220811140505 19 257 0.0 0.0 0.00 0.00 0.00 75 1012.2
20220811140013 19 257 0.0 0.0 0.00 0.00 0.00 76 1012.4
20220811135505 18 257 0.0 0.0 0.00 0.00 0.00 76 1012.5
20220811135005 18 257 0.0 0.0 0.00 0.00 0.00 76 1012.2
20220811134519 18 257 0.0 0.0 0.00 0.00 0.00 76 1011.4
20220811134006 19 257 0.0 0.0 0.00 0.00 0.00 76 1011.6
20220811133002 20 257 0.0 0.0 0.00 0.00 0.00 74 1012.4
20220811132602 20 257 0.0 0.0 0.00 0.00 0.00 72 1012.9
20220811132059 20 257 0.0 0.0 0.00 0.00 0.00 71 1013.4
20220811131629 20 257 0.0 0.0 0.00 0.00 0.00 71 1013.8
20220811131100 20 257 0.0 0.0 0.00 0.00 0.00 70 1013.8
20220811130559 20 257 0.0 0.0 0.00 0.00 0.00 70 1013.9
20220811130142 20 257 0.0 0.0 0.00 0.00 0.00 70 1013.7
20220811125558 20 257 0.0 0.0 0.00 0.00 0.00 69 1013.5
20220811125103 20 257 0.0 0.0 0.00 0.00 0.00 69 1013.5
20220811124604 20 257 0.0 0.0 0.00 0.00 0.00 68 1013.6
20220811124059 20 257 0.0 0.0 0.00 0.00 0.00 68 1013.6
20220811123700 20 257 0.0 0.0 0.00 0.00 0.00 67 1013.4
20220811123057 20 257 0.0 0.0 0.00 0.00 0.00 67 1013.4
20220811122557 20 257 0.0 0.0 0.00 0.00 0.00 66 1013.3
20220811122056 20 257 0.0 0.0 0.00 0.00 0.00 66 1013.3
20220811121605 20 257 0.0 0.0 0.00 0.00 0.00 65 1013.2
20220811121056 20 257 0.0 0.0 0.00 0.00 0.00 65 1013.3
20220811120555 20 257 0.0 0.0 0.00 0.00 0.00 65 1013.2
20220811120059 20 257 0.0 0.0 0.00 0.00 0.00 64 1013.4
20220811115554 20 257 0.0 0.0 0.00 0.00 0.00 63 1013.5
20220811115058 20 257 0.0 0.0 0.00 0.00 0.00 62 1013.5
20220811114616 20 257 0.0 0.0 0.00 0.00 0.00 62 1013.5
20220811114054 20 257 0.0 0.0 0.00 0.00 0.00 61 1013.3
20220811113654 20 257 0.0 0.0 0.00 0.00 0.00 61 1013.5
20220811113053 20 257 0.0 0.0 0.00 0.00 0.00 61 1013.4
20220811112556 20 257 0.0 0.0 0.00 0.00 0.00 60 1013.5
20220811112058 20 257 0.0 0.0 0.00 0.00 0.00 60 1013.4
20220811111556 20 257 0.0 0.0 0.00 0.00 0.00 59 1013.3
20220811111055 20 257 0.0 0.0 0.00 0.00 0.00 59 1013.5
20220811110549 20 257 0.0 0.0 0.00 0.00 0.00 58 1013.5
20220811110059 20 257 0.0 0.0 0.00 0.00 0.00 58 1013.6
20220811105547 20 257 0.0 0.0 0.00 0.00 0.00 58 1013.7
20220811105049 20 257 0.0 0.0 0.00 0.00 0.00 58 1013.7
20220811104603 20 257 0.0 0.0 0.00 0.00 0.00 58 1013.9
20220811104045 20 257 0.0 0.0 0.00 0.00 0.00 57 1014.1
20220811103644 20 257 0.0 0.0 0.00 0.00 0.00 57 1014.4
20220811103044 20 257 0.0 0.0 0.00 0.00 0.00 57 1014.4
20220811102543 20 257 0.0 0.0 0.00 0.00 0.00 57 1014.5
20220811102044 20 257 0.0 0.0 0.00 0.00 0.00 57 1014.5
20220811101542 20 257 0.0 0.0 0.00 0.00 0.00 56 1014.4
20220811101044 20 257 0.0 0.0 0.00 0.00 0.00 56 1014.4
20220811100541 21 257 0.0 0.0 0.00 0.00 0.00 58 1014.4
20220811100042 21 257 0.0 0.0 0.00 0.00 0.00 55 1014.4
20220811095544 21 257 0.0 0.0 0.00 0.00 0.00 55 1014.4
20220811095041 21 257 0.0 0.0 0.00 0.00 0.00 55 1014.3
20220811094547 21 257 0.0 0.0 0.00 0.00 0.00 55 1014.4
20220811094040 21 257 0.0 0.0 0.00 0.00 0.00 55 1014.3
20220811093640 21 257 0.0 0.0 0.00 0.00 0.00 55 1014.4
20220811093048 21 257 0.0 0.0 0.00 0.00 0.00 55 1014.4
20220811092540 21 257 0.0 0.0 0.00 0.00 0.00 54 1014.4
20220811092043 21 257 0.0 0.0 0.00 0.00 0.00 54 1014.4
20220811091539 21 257 0.0 0.0 0.00 0.00 0.00 54 1014.4
20220811091042 21 257 0.0 0.0 0.00 0.00 0.00 54 1014.5
20220811090537 21 257 0.0 0.0 0.00 0.00 0.00 54 1014.7
20220811090037 21 257 0.0 0.0 0.00 0.00 0.00 53 1014.8
20220811085538 21 257 0.0 0.0 0.00 0.00 0.00 53 1014.9
20220811085039 21 257 0.0 0.0 0.00 0.00 0.00 53 1014.9
20220811084540 21 257 0.0 0.0 0.00 0.00 0.00 53 1015.1
20220811084041 21 257 0.0 0.0 0.00 0.00 0.00 53 1015.0
20220811083640 21 257 0.0 0.0 0.00 0.00 0.00 53 1014.9
20220811083038 21 257 0.0 0.0 0.00 0.00 0.00 53 1014.9
20220811082535 21 257 0.0 0.0 0.00 0.00 0.00 53 1015.0
20220811082038 21 257 0.0 0.0 0.00 0.00 0.00 53 1015.1
20220811081602 21 257 0.0 0.0 0.00 0.00 0.00 52 1015.2
20220811081037 21 257 0.0 0.0 0.00 0.00 0.00 52 1015.3
20220811080535 21 257 0.0 0.0 0.00 0.00 0.00 52 1015.4
20220811080036 21 257 0.0 0.0 0.00 0.00 0.00 52 1015.3
20220811075534 21 257 0.0 0.0 0.00 0.00 0.00 52 1015.3
20220811075032 21 257 0.0 0.0 0.00 0.00 0.00 52 1015.4
20220811074545 21 257 0.0 0.0 0.00 0.00 0.00 52 1015.6
20220811074030 21 257 0.0 0.0 0.00 0.00 0.00 52 1015.7
20220811073634 21 257 0.0 0.0 0.00 0.00 0.00 52 1015.7
20220811073035 21 257 0.0 0.0 0.00 0.00 0.00 52 1015.8
20220811072536 21 257 0.0 0.0 0.00 0.00 0.00 52 1015.7
20220811072035 21 257 0.0 0.0 0.00 0.00 0.00 52 1015.8
20220811071535 21 257 0.0 0.0 0.00 0.00 0.00 52 1016.0
20220811071034 21 257 0.0 0.0 0.00 0.00 0.00 51 1015.9
20220811070545 21 257 0.0 0.0 0.00 0.00 0.00 51 1016.0
20220811070032 21 257 0.0 0.0 0.00 0.00 0.00 51 1016.0
20220811065531 21 257 0.0 0.0 0.00 0.00 0.00 51 1016.1
20220811065032 21 257 0.0 0.0 0.00 0.00 0.00 51 1016.1
20220811064529 21 257 0.0 0.0 0.00 0.00 0.00 51 1016.2
20220811064034 21 257 0.0 0.0 0.00 0.00 0.00 51 1016.2
20220811063636 21 257 0.0 0.0 0.00 0.00 0.00 51 1016.3
20220811063041 21 257 0.0 0.0 0.00 0.00 0.00 51 1016.3
20220811062528 21 257 0.0 0.0 0.00 0.00 0.00 51 1016.4
20220811062029 21 257 0.0 0.0 0.00 0.00 0.00 52 1016.4
20220811061527 21 257 0.0 0.0 0.00 0.00 0.00 52 1016.1
20220811061026 21 257 0.0 0.0 0.00 0.00 0.00 52 1016.2
20220811060527 21 257 0.0 0.0 0.00 0.00 0.00 53 1016.3
20220811060029 21 257 0.0 0.0 0.00 0.00 0.00 53 1016.1
20220811055528 21 257 0.0 0.0 0.00 0.00 0.00 52 1016.3
20220811055026 21 257 0.0 0.0 0.00 0.00 0.00 52 1016.6
20220811054533 21 257 0.0 0.0 0.00 0.00 0.00 52 1016.7
20220811054024 21 257 0.0 0.0 0.00 0.00 0.00 52 1016.5
20220811053629 21 257 0.0 0.0 0.00 0.00 0.00 52 1016.3
20220811053033 21 257 0.0 0.0 0.00 0.00 0.00 52 1016.3
20220811052524 21 257 0.0 0.0 0.00 0.00 0.00 52 1016.3
20220811052022 21 257 0.0 0.0 0.00 0.00 0.00 52 1016.3
20220811051522 21 257 0.0 0.0 0.00 0.00 0.00 52 1016.4
20220811051029 21 257 0.0 0.0 0.00 0.00 0.00 51 1016.4
20220811050527 21 257 0.0 0.0 0.00 0.00 0.00 51 1016.3
20220811050021 21 257 0.0 0.0 0.00 0.00 0.00 51 1016.2
20220811045529 21 257 0.0 0.0 0.00 0.00 0.00 51 1016.3
20220811045021 21 257 0.0 0.0 0.00 0.00 0.00 51 1016.3
20220811044536 22 257 0.0 0.0 0.00 0.00 0.00 50 1016.3
20220811044020 22 257 0.0 0.0 0.00 0.00 0.00 50 1016.4
20220811043621 22 257 0.0 0.0 0.00 0.00 0.00 49 1016.3
20220811043036 22 257 0.0 0.0 0.00 0.00 0.00 49 1016.4
20220811042524 22 257 0.0 0.0 0.00 0.00 0.00 49 1016.3
20220811042021 22 257 0.0 0.0 0.00 0.00 0.00 49 1016.3
20220811041521 22 257 0.0 0.0 0.00 0.00 0.00 49 1016.3
20220811041021 22 257 0.0 0.0 0.00 0.00 0.00 49 1016.3
20220811040523 22 257 0.0 0.0 0.00 0.00 0.00 48 1016.3
20220811040023 22 257 0.0 0.0 0.00 0.00 0.00 48 1016.3
20220811035522 22 257 0.0 0.0 0.00 0.00 0.00 48 1016.3
20220811035022 23 257 0.0 0.0 0.00 0.00 0.00 47 1016.2
20220811034529 23 257 0.0 0.0 0.00 0.00 0.00 47 1016.1
20220811034020 23 257 0.0 0.0 0.00 0.00 0.00 46 1016.2
20220811033620 23 257 0.0 0.0 0.00 0.00 0.00 46 1016.3
20220811033022 23 257 0.0 0.0 0.00 0.00 0.00 45 1016.3
20220811032522 23 257 0.0 0.0 0.00 0.00 0.00 45 1016.3
20220811032029 23 257 0.0 0.0 0.00 0.00 0.00 45 1016.2
20220811030020 24 257 0.0 0.0 0.00 0.00 0.00 44 1015.9
20220811025515 24 257 0.0 0.0 0.00 0.00 0.00 44 1015.9
20220811025018 25 257 0.0 0.0 0.00 0.00 0.00 44 1015.8
20220811024533 25 257 0.0 0.0 0.00 0.00 0.00 44 1015.8
20220811024016 25 257 0.0 0.0 0.00 0.00 0.00 44 1015.8
20220811023616 25 257 0.0 0.0 0.00 0.00 0.00 43 1015.8
20220811023034 25 257 0.0 0.0 0.00 0.00 0.00 42 1015.8
20220811022515 25 257 0.0 0.0 0.00 0.00 0.00 42 1015.8
20220811022013 26 257 0.0 0.0 0.00 0.00 0.00 41 1015.8
20220811021514 26 257 0.0 0.0 0.00 0.00 0.00 41 1015.7
20220811021016 26 257 0.0 0.0 0.00 0.00 0.00 41 1015.7
20220811020514 26 257 0.0 0.0 0.00 0.00 0.00 41 1015.7
20220811020013 26 257 0.0 0.0 0.00 0.00 0.00 40 1015.6
20220811015513 26 257 0.0 0.0 0.00 0.00 0.00 40 1015.5
20220811015013 27 257 0.0 0.0 0.00 0.00 0.00 40 1015.5
20220811014512 27 257 0.0 0.0 0.00 0.00 0.00 40 1015.3
20220811014012 27 257 0.0 0.0 0.00 0.00 0.00 39 1015.3
20220811013613 27 257 0.0 0.0 0.00 0.00 0.00 39 1015.3
20220811013017 27 257 0.0 0.0 0.00 0.00 0.00 39 1015.3
20220811012517 27 257 0.0 0.0 0.00 0.00 0.00 38 1015.3
20220811012017 27 257 0.0 0.0 0.00 0.00 0.00 38 1015.2
20220811011521 27 257 0.0 0.0 0.00 0.00 0.00 38 1015.3
20220811011024 28 257 0.0 0.0 0.00 0.00 0.00 38 1015.2
20220811010524 28 257 0.0 0.0 0.00 0.00 0.00 38 1015.3
20220811010024 28 257 0.0 0.0 0.00 0.00 0.00 37 1015.3
20220811005517 28 257 0.0 0.0 0.00 0.00 0.00 38 1015.3
20220811005024 28 257 0.0 0.0 0.00 0.00 0.00 37 1015.3
20220811004516 28 257 0.0 0.0 0.00 0.00 0.00 37 1015.4
20220811004015 28 257 0.0 0.0 0.00 0.00 0.00 37 1015.4
20220811003615 28 257 0.0 0.0 0.00 0.00 0.00 36 1015.3
20220811003013 28 257 0.0 0.0 0.00 0.00 0.00 36 1015.3
20220811002512 28 257 0.0 0.0 0.00 0.00 0.00 37 1015.4